Skip Page Navigation
NASA JPL Caltech
NASA Logo - Jet Propulsion Laboratory + View the NASA Portal
+ Center for Near-Earth Object Studies
JPL Home Earth Solar System Stars & Galaxies Technology
JPL Solar System Dynamics
BODIES ORBITS EPHEMERIDES TOOLS PHYSICAL DATA DISCOVERY FAQ SITE MAP
IMPORTANT: The SSD Announcement email list is now available. Major changes are coming in the near future, including possible hostname and/or URL changes. To be notified of such changes, subscribe to this email list.

Please visit this page for more details.


JPL Small-Body Database Browser
Search: [ help ]  
214307 (2005 JF22)
Classification: Main-belt Asteroid          SPK-ID: 2214307
Ephemeris | Orbit Diagram | Orbital Elements | Mission Design | Physical Parameters | Discovery Circumstances | Close-Approach Data ]

[ show orbit diagram ]
Orbital Elements at Epoch 2458600.5 (2019-Apr-27.0) TDB
Reference: JPL 15 (heliocentric ecliptic J2000)
 Element Value Uncertainty (1-sigma)   Units 
e .206068553985147 5.69e-08  
a 2.385108613096134 1.463e-08 au
q 1.893612730097894 1.3482e-07 au
i 9.262066007045421 6.0207e-06 deg
node 49.73240836683396 3.2544e-05 deg
peri 273.5043270813189 3.688e-05 deg
M 191.1732014343528 1.8134e-05 deg
tp 2459231.456694040278
(2021-Jan-16.95669404)
6.9094e-05 TDB
period 1345.428639198987
3.68
1.2379e-05
3.389e-08
d
yr
n .2675727195864726 2.4619e-09 deg/d
Q 2.876604496094374 1.7645e-08 au
  Orbit Determination Parameters
   # obs. used (total)      410  
   data-arc span      6004 days (16.44 yr)  
   first obs. used      2002-09-26  
   last obs. used      2019-03-05  
   planetary ephem.      DE431  
   SB-pert. ephem.      SB431-N16  
   condition code      0  
   norm. resid. RMS      .5437  
   source      ORB  
   producer      Otto Matic  
   solution date      2019-Jul-14 02:48:31  

Additional Information
 Earth MOID = .908378 au 
 Jupiter MOID = 2.5094 au 
 T_jup = 3.489 
[ show covariance matrix ]

Ephemeris | Orbit Diagram | Orbital Elements | Mission Design | Physical Parameters | Discovery Circumstances | Close-Approach Data ]

Physical Parameter Table
Parameter Symbol Value Units Sigma Reference Notes
absolute magnitude H 16.3   n/a MPO433401  

214307 (2005 JF22)          Discovered 2005-May-04 by Durig, D. T. at Cordell-Lorenz
Reference: 20090509/Numbers.arcLast Updated: 2009-05-11

[ show close-approach data ]
Alternate Designations
 2005 JF22 = 2006 SV245 
Ephemeris | Orbit Diagram | Orbital Elements | Mission Design | Physical Parameters | Discovery Circumstances | Close-Approach Data ]
ABOUT SSD CREDITS/AWARDS PRIVACY/COPYRIGHT GLOSSARY LINKS
FirstGov 2019-Dec-08 00:33 UT
(server date/time)  
NASA Home Page
Site Manager:   Ryan S. Park
Webmaster  Alan B. Chamberlin